User: anonymous   Login
Location: Libas
(9.8833°N, 125.9833°E)
Time: 00:16:01
(UTC+00:00)
Language:

Cosmos 2251 Rocket - Orbit

View from above orbital plane
View from above orbital plane
View from above satellite
View from above satellite

Ground track
Ground track

The orbit data is extracted from the following two-line orbital elements,

1 22676U 93036B   21015.55371085  .00000015  00000-0  14748-4 0  9991
2 22676  74.0440 308.8279 0018422  11.8604 348.2978 14.34022418442604
Epoch (UTC): 15 January 2021 13:17:20
Eccentricity: 0.0018422
inclination: 74.0440°
perigee height: 765 km
apogee height: 791 km
right ascension of ascending node: 308.8279°
argument of perigee: 11.8604°
revolutions per day: 14.34022418
mean anomaly at epoch: 348.2978°
orbit number at epoch: 44260

The dashed part of the orbit path shows where the satellite is in the earth's shadow,  

DLR